Time,TemperatureF,DewpointF,PressureIn,WindDirection,WindDirectionDegrees,WindSpeedMPH,WindSpeedGustMPH,Humidity,HourlyPrecipIn,Conditions,Clouds,dailyrainin,SoftwareType,DateUTC
2013-10-10 00:02:00,62.3,60.8,29.98,ENE,65,0.0,0.0,95,0.00,,---,0.01,VWS V14.01,2013-10-10 05:02:00,
2013-10-10 00:07:00,62.3,60.8,29.98,ENE,65,0.0,0.0,95,0.00,,---,0.00,VWS V14.01,2013-10-10 05:07:00,
2013-10-10 00:12:00,62.2,60.8,29.98,ENE,65,0.0,0.0,95,0.00,,---,0.00,VWS V14.01,2013-10-10 05:12:00,
2013-10-10 00:17:00,62.2,60.8,29.97,ENE,65,0.0,0.0,95,0.00,,---,0.00,VWS V14.01,2013-10-10 05:17:00,
2013-10-10 00:22:00,62.2,60.8,29.97,ENE,65,0.0,0.0,95,0.00,,---,0.00,VWS V14.01,2013-10-10 05:22:00,
2013-10-10 00:27:00,62.3,60.8,29.97,ENE,65,0.0,0.0,95,0.00,,---,0.00,VWS V14.01,2013-10-10 05:27:00,
2013-10-10 00:32:00,62.3,60.8,29.97,ENE,65,0.0,0.0,95,0.00,,---,0.00,VWS V14.01,2013-10-10 05:32:00,
2013-10-10 00:37:00,62.2,60.8,29.97,ENE,65,0.0,0.0,95,0.00,,---,0.00,VWS V14.01,2013-10-10 05:37:00,
2013-10-10 00:42:00,62.0,60.6,29.97,ENE,65,0.0,0.0,95,0.00,,---,0.00,VWS V14.01,2013-10-10 05:42:00,
2013-10-10 00:47:00,62.0,60.6,29.97,ENE,65,0.0,0.0,95,0.00,,---,0.00,VWS V14.01,2013-10-10 05:47:00,
2013-10-10 00:52:00,61.9,60.5,29.97,ENE,65,0.0,0.0,95,0.00,,---,0.00,VWS V14.01,2013-10-10 05:52:00,
2013-10-10 00:57:00,61.7,60.3,29.97,ENE,65,0.0,0.0,95,0.00,,---,0.00,VWS V14.01,2013-10-10 05:57:00,
2013-10-10 01:02:00,61.6,60.2,29.97,ENE,65,0.0,0.0,95,0.00,,---,0.00,VWS V14.01,2013-10-10 06:02:00,
2013-10-10 01:07:00,61.6,60.2,29.97,ENE,65,0.0,0.0,95,0.00,,---,0.00,VWS V14.01,2013-10-10 06:07:00,
2013-10-10 01:12:00,61.6,60.2,29.97,ENE,65,0.0,0.0,95,0.00,,---,0.00,VWS V14.01,2013-10-10 06:12:00,
2013-10-10 01:17:00,61.5,60.1,29.98,ENE,65,0.0,0.0,95,0.00,,---,0.00,VWS V14.01,2013-10-10 06:17:00,
2013-10-10 01:22:00,61.4,60.0,29.98,ENE,65,0.0,0.0,95,0.00,,---,0.00,VWS V14.01,2013-10-10 06:22:00,
2013-10-10 01:27:00,61.3,59.9,29.98,ENE,65,0.0,0.0,95,0.00,,---,0.00,VWS V14.01,2013-10-10 06:27:00,
2013-10-10 01:32:00,61.3,59.9,29.98,ENE,65,0.0,0.0,95,0.00,,---,0.00,VWS V14.01,2013-10-10 06:32:00,
2013-10-10 01:37:00,61.3,59.9,29.98,ENE,65,0.0,0.0,95,0.00,,---,0.00,VWS V14.01,2013-10-10 06:37:00,
2013-10-10 01:42:00,61.4,60.0,29.98,ENE,65,0.0,0.0,95,0.00,,---,0.00,VWS V14.01,2013-10-10 06:42:00,
2013-10-10 01:47:00,61.4,60.0,29.98,ENE,65,0.0,0.0,95,0.00,,---,0.00,VWS V14.01,2013-10-10 06:47:00,
2013-10-10 01:52:00,61.4,60.0,29.98,ENE,65,0.0,0.0,95,0.00,,---,0.00,VWS V14.01,2013-10-10 06:52:00,
2013-10-10 01:57:00,61.5,60.1,29.98,ENE,65,0.0,0.0,95,0.00,,---,0.00,VWS V14.01,2013-10-10 06:57:00,
2013-10-10 02:02:00,61.4,60.0,29.98,ENE,65,0.0,0.0,95,0.00,,---,0.00,VWS V14.01,2013-10-10 07:02:00,
2013-10-10 02:07:00,61.3,59.9,29.98,ENE,65,0.0,0.0,95,0.00,,---,0.00,VWS V14.01,2013-10-10 07:07:00,
2013-10-10 02:12:00,61.2,60.0,29.98,ENE,65,0.0,0.0,96,0.00,,---,0.00,VWS V14.01,2013-10-10 07:12:00,
2013-10-10 02:17:00,61.1,59.7,29.97,ENE,65,0.0,0.0,95,0.00,,---,0.00,VWS V14.01,2013-10-10 07:17:00,
2013-10-10 02:22:00,60.9,59.8,29.97,ENE,65,0.0,0.0,96,0.00,,---,0.00,VWS V14.01,2013-10-10 07:22:00,
2013-10-10 02:27:00,60.7,59.3,29.97,ENE,65,0.0,0.0,95,0.00,,---,0.00,VWS V14.01,2013-10-10 07:27:00,
2013-10-10 02:32:00,60.5,59.1,29.98,ENE,65,0.0,0.0,95,0.00,,---,0.00,VWS V14.01,2013-10-10 07:32:00,
2013-10-10 02:37:00,60.4,59.3,29.98,ENE,65,0.0,0.0,96,0.00,,---,0.00,VWS V14.01,2013-10-10 07:37:00,
2013-10-10 02:42:00,60.4,59.3,29.98,ENE,65,0.0,0.0,96,0.00,,---,0.00,VWS V14.01,2013-10-10 07:42:00,
2013-10-10 02:58:00,60.0,58.9,29.97,ENE,65,0.0,0.0,96,0.00,,---,0.00,VWS V14.01,2013-10-10 07:58:00,
2013-10-10 03:03:00,59.8,58.7,29.97,ENE,65,0.0,0.0,96,0.00,,---,0.00,VWS V14.01,2013-10-10 08:03:00,
2013-10-10 03:08:00,59.7,58.6,29.97,ENE,65,0.0,0.0,96,0.00,,---,0.00,VWS V14.01,2013-10-10 08:08:00,
2013-10-10 03:13:00,59.6,58.2,29.97,ENE,65,0.0,0.0,95,0.00,,---,0.00,VWS V14.01,2013-10-10 08:13:00,
2013-10-10 03:18:00,59.5,58.1,29.97,ENE,65,0.0,0.0,95,0.00,,---,0.00,VWS V14.01,2013-10-10 08:18:00,
2013-10-10 03:23:00,59.2,58.1,29.97,ENE,65,0.0,0.0,96,0.00,,---,0.00,VWS V14.01,2013-10-10 08:23:00,
2013-10-10 03:28:00,59.2,58.1,29.97,ENE,65,0.0,0.0,96,0.00,,---,0.00,VWS V14.01,2013-10-10 08:28:00,
2013-10-10 03:33:00,59.2,58.1,29.97,ENE,65,0.0,0.0,96,0.00,,---,0.00,VWS V14.01,2013-10-10 08:33:00,
2013-10-10 03:38:00,59.2,58.1,29.97,ENE,65,0.0,0.0,96,0.00,,---,0.00,VWS V14.01,2013-10-10 08:38:00,
2013-10-10 03:43:00,59.3,58.2,29.97,ENE,65,0.0,0.0,96,0.00,,---,0.00,VWS V14.01,2013-10-10 08:43:00,
2013-10-10 03:48:00,59.1,58.0,29.97,ENE,65,0.0,0.0,96,0.00,,---,0.00,VWS V14.01,2013-10-10 08:48:00,
2013-10-10 03:53:00,59.0,57.6,29.97,ENE,65,0.0,0.0,95,0.00,,---,0.00,VWS V14.01,2013-10-10 08:53:00,
2013-10-10 03:58:00,59.0,57.9,29.97,ENE,65,0.0,0.0,96,0.00,,---,0.00,VWS V14.01,2013-10-10 08:58:00,
2013-10-10 04:03:00,59.0,57.9,29.98,ENE,65,0.0,0.0,96,0.00,,---,0.00,VWS V14.01,2013-10-10 09:03:00,
2013-10-10 04:08:00,59.0,57.9,29.98,ENE,65,0.0,0.0,96,0.00,,---,0.00,VWS V14.01,2013-10-10 09:08:00,
2013-10-10 04:13:00,59.0,57.9,29.98,ENE,65,0.0,0.0,96,0.00,,---,0.00,VWS V14.01,2013-10-10 09:13:00,
2013-10-10 04:18:00,59.0,57.9,29.98,ENE,65,0.0,0.0,96,0.00,,---,0.00,VWS V14.01,2013-10-10 09:18:00,
2013-10-10 04:23:00,59.1,58.0,29.98,ENE,65,0.0,0.0,96,0.00,,---,0.00,VWS V14.01,2013-10-10 09:23:00,
2013-10-10 04:28:00,59.0,57.9,29.98,ENE,65,0.0,0.0,96,0.00,,---,0.00,VWS V14.01,2013-10-10 09:28:00,
2013-10-10 04:33:00,59.0,57.9,29.98,ENE,65,0.0,0.0,96,0.00,,---,0.00,VWS V14.01,2013-10-10 09:33:00,
2013-10-10 04:38:00,59.0,57.9,29.98,ENE,65,0.0,0.0,96,0.00,,---,0.00,VWS V14.01,2013-10-10 09:38:00,
2013-10-10 04:43:00,59.3,58.2,29.98,ENE,65,0.0,0.0,96,0.00,,---,0.00,VWS V14.01,2013-10-10 09:43:00,
2013-10-10 04:48:00,59.3,58.2,29.98,ENE,65,0.0,0.0,96,0.00,,---,0.00,VWS V14.01,2013-10-10 09:48:00,
2013-10-10 04:53:00,59.2,58.1,29.98,ENE,65,0.0,0.0,96,0.00,,---,0.00,VWS V14.01,2013-10-10 09:53:00,
2013-10-10 04:58:00,59.0,57.9,29.98,ENE,65,0.0,0.0,96,0.00,,---,0.00,VWS V14.01,2013-10-10 09:58:00,
2013-10-10 05:03:00,59.0,57.9,29.98,ENE,65,0.0,0.0,96,0.00,,---,0.00,VWS V14.01,2013-10-10 10:03:00,
2013-10-10 05:08:00,59.0,57.9,29.98,ENE,65,0.0,0.0,96,0.00,,---,0.00,VWS V14.01,2013-10-10 10:08:00,
2013-10-10 05:13:00,59.0,57.9,29.98,ENE,65,0.0,0.0,96,0.00,,---,0.00,VWS V14.01,2013-10-10 10:13:00,
2013-10-10 05:18:00,59.0,57.9,29.99,ENE,65,0.0,0.0,96,0.00,,---,0.00,VWS V14.01,2013-10-10 10:18:00,
2013-10-10 05:23:00,59.0,57.9,29.99,ENE,65,0.0,0.0,96,0.00,,---,0.00,VWS V14.01,2013-10-10 10:23:00,
2013-10-10 05:28:00,59.0,57.9,29.99,ENE,65,0.0,0.0,96,0.00,,---,0.00,VWS V14.01,2013-10-10 10:28:00,
2013-10-10 05:33:00,59.0,57.9,30.00,ENE,65,0.0,0.0,96,0.00,,---,0.00,VWS V14.01,2013-10-10 10:33:00,
2013-10-10 05:38:00,59.0,57.9,30.00,ENE,65,0.0,0.0,96,0.00,,---,0.00,VWS V14.01,2013-10-10 10:38:00,
2013-10-10 05:43:00,59.0,57.9,30.00,ENE,65,0.0,0.0,96,0.00,,---,0.00,VWS V14.01,2013-10-10 10:43:00,
2013-10-10 05:48:00,59.0,57.9,30.00,ENE,65,0.0,0.0,96,0.00,,---,0.00,VWS V14.01,2013-10-10 10:48:00,
2013-10-10 05:53:00,59.0,57.9,30.00,ENE,65,0.0,0.0,96,0.00,,---,0.00,VWS V14.01,2013-10-10 10:53:00,
2013-10-10 05:58:00,59.0,57.9,30.00,ENE,65,0.0,0.0,96,0.00,,---,0.00,VWS V14.01,2013-10-10 10:58:00,
2013-10-10 06:03:00,59.0,57.9,30.00,ENE,65,0.0,0.0,96,0.00,,---,0.00,VWS V14.01,2013-10-10 11:03:00,
2013-10-10 06:08:00,58.8,57.7,30.00,ENE,65,0.0,0.0,96,0.00,,---,0.00,VWS V14.01,2013-10-10 11:08:00,
2013-10-10 06:13:00,58.8,57.7,30.00,ENE,65,0.0,0.0,96,0.00,,---,0.00,VWS V14.01,2013-10-10 11:13:00,
2013-10-10 06:18:00,58.9,57.8,30.00,ENE,65,0.0,0.0,96,0.00,,---,0.00,VWS V14.01,2013-10-10 11:18:00,
2013-10-10 06:23:00,58.9,57.8,30.00,ENE,65,0.0,0.0,96,0.00,,---,0.00,VWS V14.01,2013-10-10 11:23:00,
2013-10-10 06:28:00,58.8,57.7,30.00,ENE,65,0.0,0.0,96,0.00,,---,0.00,VWS V14.01,2013-10-10 11:28:00,
2013-10-10 06:33:00,58.6,57.5,30.00,ENE,65,0.0,0.0,96,0.00,,---,0.00,VWS V14.01,2013-10-10 11:33:00,
2013-10-10 06:38:00,58.6,57.5,30.00,ENE,65,0.0,0.0,96,0.00,,---,0.00,VWS V14.01,2013-10-10 11:38:00,
2013-10-10 06:43:00,58.6,57.5,30.00,ENE,65,0.0,0.0,96,0.00,,---,0.00,VWS V14.01,2013-10-10 11:43:00,
2013-10-10 06:48:00,58.6,57.5,30.00,ENE,65,0.0,0.0,96,0.00,,---,0.00,VWS V14.01,2013-10-10 11:48:00,
2013-10-10 06:53:00,58.6,57.5,30.00,ENE,65,0.0,0.0,96,0.00,,---,0.00,VWS V14.01,2013-10-10 11:53:00,
2013-10-10 06:58:00,58.6,57.5,30.00,ENE,64,0.0,0.0,96,0.00,,---,0.00,VWS V14.01,2013-10-10 11:58:00,
2013-10-10 07:03:00,58.6,57.5,30.01,ENE,64,0.0,0.0,96,0.00,,---,0.00,VWS V14.01,2013-10-10 12:03:00,
2013-10-10 07:08:00,58.7,57.6,30.01,ENE,65,0.0,0.0,96,0.00,,---,0.00,VWS V14.01,2013-10-10 12:08:00,
2013-10-10 07:13:00,58.8,57.7,30.01,ENE,65,0.0,0.0,96,0.00,,---,0.00,VWS V14.01,2013-10-10 12:13:00,
2013-10-10 07:18:00,59.0,57.9,30.01,ENE,64,0.0,0.0,96,0.00,,---,0.00,VWS V14.01,2013-10-10 12:18:00,
2013-10-10 07:23:00,59.0,57.9,30.01,ENE,65,0.0,0.0,96,0.00,,---,0.00,VWS V14.01,2013-10-10 12:23:00,
2013-10-10 07:28:00,59.0,57.9,30.01,ENE,65,0.0,0.0,96,0.00,,---,0.00,VWS V14.01,2013-10-10 12:28:00,
2013-10-10 07:33:00,59.1,58.0,30.01,ENE,65,0.0,0.0,96,0.00,,---,0.00,VWS V14.01,2013-10-10 12:33:00,
2013-10-10 07:38:00,59.4,58.3,30.01,ENE,65,0.0,0.0,96,0.00,,---,0.00,VWS V14.01,2013-10-10 12:38:00,
2013-10-10 07:43:00,59.6,58.5,30.01,ENE,64,0.0,0.0,96,0.00,,---,0.00,VWS V14.01,2013-10-10 12:43:00,
2013-10-10 07:48:00,59.8,58.7,30.01,ENE,64,0.0,0.0,96,0.00,,---,0.00,VWS V14.01,2013-10-10 12:48:00,
2013-10-10 07:53:00,59.9,58.8,30.01,ENE,64,0.0,0.0,96,0.00,,---,0.00,VWS V14.01,2013-10-10 12:53:00,
2013-10-10 07:58:00,60.0,58.9,30.01,ENE,65,0.0,0.0,96,0.00,,---,0.00,VWS V14.01,2013-10-10 12:58:00,
2013-10-10 08:03:00,60.2,59.1,30.02,ENE,64,0.0,0.0,96,0.00,,---,0.00,VWS V14.01,2013-10-10 13:03:00,
2013-10-10 08:08:00,60.3,59.2,30.02,ENE,64,0.0,0.0,96,0.00,,---,0.00,VWS V14.01,2013-10-10 13:08:00,
2013-10-10 08:13:00,60.5,59.4,30.02,ENE,63,0.0,0.0,96,0.00,,---,0.00,VWS V14.01,2013-10-10 13:13:00,
2013-10-10 08:18:00,60.7,59.6,30.02,ENE,64,0.0,0.0,96,0.00,,---,0.00,VWS V14.01,2013-10-10 13:18:00,
2013-10-10 08:23:00,61.0,59.9,30.02,ENE,64,0.0,0.0,96,0.00,,---,0.00,VWS V14.01,2013-10-10 13:23:00,
2013-10-10 08:28:00,61.2,60.3,30.02,ENE,64,0.0,0.0,97,0.00,,---,0.00,VWS V14.01,2013-10-10 13:28:00,
2013-10-10 08:33:00,61.4,60.5,30.02,ENE,65,0.0,0.0,97,0.00,,---,0.00,VWS V14.01,2013-10-10 13:33:00,
2013-10-10 08:38:00,61.7,60.5,30.02,ENE,65,0.0,0.0,96,0.00,,---,0.00,VWS V14.01,2013-10-10 13:38:00,
2013-10-10 08:43:00,62.1,61.2,30.02,ENE,64,0.0,0.0,97,0.00,,---,0.00,VWS V14.01,2013-10-10 13:43:00,
2013-10-10 08:48:00,62.3,61.4,30.03,ENE,65,0.0,0.0,97,0.00,,---,0.00,VWS V14.01,2013-10-10 13:48:00,
2013-10-10 08:53:00,62.6,61.7,30.03,ENE,65,0.0,0.0,97,0.00,,---,0.00,VWS V14.01,2013-10-10 13:53:00,
2013-10-10 08:58:00,62.9,62.0,30.03,ENE,65,0.0,0.0,97,0.00,,---,0.00,VWS V14.01,2013-10-10 13:58:00,
2013-10-10 09:03:00,63.3,62.4,30.03,ENE,64,0.0,0.0,97,0.00,,---,0.00,VWS V14.01,2013-10-10 14:03:00,
2013-10-10 09:08:00,63.7,62.8,30.03,ENE,64,0.0,0.0,97,0.00,,---,0.00,VWS V14.01,2013-10-10 14:08:00,
2013-10-10 09:13:00,64.0,63.1,30.03,ENE,65,0.0,0.0,97,0.00,,---,0.00,VWS V14.01,2013-10-10 14:13:00,
2013-10-10 09:18:00,64.3,63.4,30.03,ENE,65,0.0,0.0,97,0.00,,---,0.00,VWS V14.01,2013-10-10 14:18:00,
2013-10-10 09:23:00,64.5,63.6,30.03,ENE,64,0.0,0.0,97,0.00,,---,0.00,VWS V14.01,2013-10-10 14:23:00,
2013-10-10 09:28:00,64.6,63.7,30.03,ENE,64,0.0,0.0,97,0.00,,---,0.00,VWS V14.01,2013-10-10 14:28:00,
2013-10-10 09:33:00,64.9,64.0,30.03,ENE,65,0.0,0.0,97,0.00,,---,0.00,VWS V14.01,2013-10-10 14:33:00,
2013-10-10 09:38:00,65.2,64.3,30.03,ENE,65,0.0,0.0,97,0.00,,---,0.00,VWS V14.01,2013-10-10 14:38:00,
2013-10-10 09:43:00,65.6,64.7,30.03,ENE,65,0.0,0.0,97,0.00,,---,0.00,VWS V14.01,2013-10-10 14:43:00,
2013-10-10 09:48:00,65.8,64.9,30.03,ENE,65,0.0,0.0,97,0.00,,---,0.00,VWS V14.01,2013-10-10 14:48:00,
2013-10-10 09:53:00,66.0,65.1,30.03,ENE,65,0.0,0.0,97,0.00,,---,0.00,VWS V14.01,2013-10-10 14:53:00,
2013-10-10 09:58:00,66.3,65.4,30.03,ENE,64,0.0,0.0,97,0.00,,---,0.00,VWS V14.01,2013-10-10 14:58:00,
2013-10-10 10:03:00,66.7,65.8,30.03,ENE,65,0.0,0.0,97,0.00,,---,0.00,VWS V14.01,2013-10-10 15:03:00,
2013-10-10 10:08:00,67.0,66.1,30.03,ENE,65,0.0,0.0,97,0.00,,---,0.00,VWS V14.01,2013-10-10 15:08:00,
2013-10-10 10:13:00,67.3,66.4,30.03,ENE,65,0.0,1.0,97,0.00,,---,0.00,VWS V14.01,2013-10-10 15:13:00,
2013-10-10 10:18:00,67.5,66.3,30.03,ENE,64,1.0,1.0,96,0.00,,---,0.00,VWS V14.01,2013-10-10 15:18:00,
2013-10-10 10:23:00,67.9,66.7,30.03,ENE,64,0.0,1.0,96,0.00,,---,0.00,VWS V14.01,2013-10-10 15:23:00,
2013-10-10 10:28:00,68.4,67.2,30.03,ENE,65,0.0,1.0,96,0.00,,---,0.00,VWS V14.01,2013-10-10 15:28:00,
2013-10-10 10:33:00,68.8,67.3,30.02,WNW,298,1.0,1.0,95,0.00,,---,0.00,VWS V14.01,2013-10-10 15:33:00,
2013-10-10 10:38:00,69.2,67.4,30.02,WNW,294,2.0,4.0,94,0.00,,---,0.00,VWS V14.01,2013-10-10 15:38:00,
2013-10-10 10:43:00,69.5,66.8,30.02,WNW,286,0.0,4.0,91,0.00,,---,0.00,VWS V14.01,2013-10-10 15:43:00,
2013-10-10 10:48:00,69.6,66.2,30.03,WNW,296,1.0,4.0,89,0.00,,---,0.00,VWS V14.01,2013-10-10 15:48:00,
2013-10-10 10:53:00,69.8,66.1,30.03,WNW,298,0.0,4.0,88,0.00,,---,0.00,VWS V14.01,2013-10-10 15:53:00,
2013-10-10 10:58:00,70.4,66.0,30.03,WNW,296,1.0,4.0,86,0.00,,---,0.00,VWS V14.01,2013-10-10 15:58:00,
2013-10-10 11:03:00,71.1,66.0,30.02,WNW,297,0.0,0.0,84,0.00,,---,0.00,VWS V14.01,2013-10-10 16:03:00,
2013-10-10 11:08:00,72.3,66.5,30.02,West,281,0.0,1.0,82,0.00,,---,0.00,VWS V14.01,2013-10-10 16:08:00,
2013-10-10 11:13:00,73.1,65.8,30.02,West,280,0.0,2.0,78,0.00,,---,0.00,VWS V14.01,2013-10-10 16:13:00,
2013-10-10 11:18:00,73.3,65.7,30.02,West,279,0.0,2.0,77,0.00,,---,0.00,VWS V14.01,2013-10-10 16:18:00,
2013-10-10 11:23:00,73.0,65.4,30.02,WNW,295,0.0,2.0,77,0.00,,---,0.00,VWS V14.01,2013-10-10 16:23:00,
2013-10-10 11:28:00,73.0,65.7,30.02,WNW,294,0.0,2.0,78,0.00,,---,0.00,VWS V14.01,2013-10-10 16:28:00,
2013-10-10 11:33:00,73.2,65.9,30.02,WNW,294,0.0,0.0,78,0.00,,---,0.00,VWS V14.01,2013-10-10 16:33:00,
2013-10-10 11:38:00,73.3,65.3,30.02,WNW,295,0.0,2.0,76,0.00,,---,0.00,VWS V14.01,2013-10-10 16:38:00,
2013-10-10 11:43:00,73.1,65.1,30.02,WNW,294,0.0,2.0,76,0.00,,---,0.00,VWS V14.01,2013-10-10 16:43:00,
2013-10-10 11:48:00,73.2,65.9,30.01,North,350,0.0,2.0,78,0.00,,---,0.00,VWS V14.01,2013-10-10 16:48:00,
2013-10-10 11:53:00,73.9,66.2,30.01,North,351,2.0,2.0,77,0.00,,---,0.00,VWS V14.01,2013-10-10 16:53:00,
2013-10-10 11:58:00,74.1,65.7,30.01,NNW,342,0.0,4.0,75,0.00,,---,0.00,VWS V14.01,2013-10-10 16:58:00,
2013-10-10 12:03:00,74.8,66.3,30.01,East,94,1.0,3.0,75,0.00,,---,0.00,VWS V14.01,2013-10-10 17:03:00,
2013-10-10 12:08:00,75.2,66.3,30.01,NNW,332,1.0,3.0,74,0.00,,---,0.00,VWS V14.01,2013-10-10 17:08:00,
2013-10-10 12:13:00,75.4,65.8,30.01,NNW,330,0.0,4.0,72,0.00,,---,0.00,VWS V14.01,2013-10-10 17:13:00,
2013-10-10 12:18:00,75.0,65.4,30.00,WNW,290,0.0,5.0,72,0.00,,---,0.00,VWS V14.01,2013-10-10 17:18:00,
2013-10-10 12:23:00,74.6,65.4,30.00,NW,305,0.0,5.0,73,0.00,,---,0.00,VWS V14.01,2013-10-10 17:23:00,
2013-10-10 12:28:00,75.1,66.2,30.00,NW,306,0.0,5.0,74,0.00,,---,0.00,VWS V14.01,2013-10-10 17:28:00,
2013-10-10 12:33:00,75.3,65.7,30.00,NW,325,1.0,1.0,72,0.00,,---,0.00,VWS V14.01,2013-10-10 17:33:00,
2013-10-10 12:38:00,74.9,65.3,30.00,WNW,298,0.0,4.0,72,0.00,,---,0.00,VWS V14.01,2013-10-10 17:38:00,
2013-10-10 12:43:00,75.2,65.6,30.00,NE,40,0.0,4.0,72,0.00,,---,0.00,VWS V14.01,2013-10-10 17:43:00,
2013-10-10 12:48:00,75.9,65.8,29.99,NW,317,0.0,4.0,71,0.00,,---,0.00,VWS V14.01,2013-10-10 17:48:00,
2013-10-10 12:53:00,76.5,66.0,29.99,SW,225,0.0,4.0,70,0.00,,---,0.00,VWS V14.01,2013-10-10 17:53:00,
2013-10-10 12:58:00,76.2,65.7,29.99,NW,313,0.0,4.0,70,0.00,,---,0.00,VWS V14.01,2013-10-10 17:58:00,
2013-10-10 13:03:00,75.9,65.8,29.99,NW,313,0.0,1.0,71,0.00,,---,0.00,VWS V14.01,2013-10-10 18:03:00,
2013-10-10 13:08:00,75.9,65.4,29.99,NW,313,0.0,2.0,70,0.00,,---,0.00,VWS V14.01,2013-10-10 18:08:00,
2013-10-10 13:13:00,76.0,65.5,29.99,NW,313,0.0,2.0,70,0.00,,---,0.00,VWS V14.01,2013-10-10 18:13:00,
2013-10-10 13:18:00,76.2,66.5,29.98,NW,313,0.0,2.0,72,0.00,,---,0.00,VWS V14.01,2013-10-10 18:18:00,
2013-10-10 13:23:00,76.8,65.9,29.98,NW,313,0.0,2.0,69,0.00,,---,0.00,VWS V14.01,2013-10-10 18:23:00,
2013-10-10 13:28:00,77.1,65.3,29.98,NW,313,0.0,2.0,67,0.00,,---,0.00,VWS V14.01,2013-10-10 18:28:00,
2013-10-10 13:33:00,76.8,64.6,29.97,WNW,296,1.0,3.0,66,0.00,,---,0.00,VWS V14.01,2013-10-10 18:33:00,
2013-10-10 13:38:00,76.4,64.6,29.97,WNW,294,0.0,3.0,67,0.00,,---,0.00,VWS V14.01,2013-10-10 18:38:00,
2013-10-10 13:43:00,76.5,64.7,29.97,WNW,296,1.0,3.0,67,0.00,,---,0.00,VWS V14.01,2013-10-10 18:43:00,
2013-10-10 13:48:00,76.9,64.7,29.97,WNW,295,0.0,3.0,66,0.00,,---,0.00,VWS V14.01,2013-10-10 18:48:00,
2013-10-10 13:53:00,77.3,66.8,29.97,WNW,295,0.0,3.0,70,0.00,,---,0.00,VWS V14.01,2013-10-10 18:53:00,
2013-10-10 13:58:00,77.4,65.6,29.97,WNW,286,0.0,3.0,67,0.00,,---,0.00,VWS V14.01,2013-10-10 18:58:00,
2013-10-10 14:03:00,77.1,65.3,29.96,WNW,286,0.0,0.0,67,0.00,,---,0.00,VWS V14.01,2013-10-10 19:03:00,
2013-10-10 14:08:00,77.2,64.5,29.96,WNW,286,0.0,0.0,65,0.00,,---,0.00,VWS V14.01,2013-10-10 19:08:00,
2013-10-10 14:13:00,77.6,64.9,29.96,WNW,285,0.0,0.0,65,0.00,,---,0.00,VWS V14.01,2013-10-10 19:13:00,
2013-10-10 14:18:00,77.6,66.2,29.95,WNW,286,0.0,1.0,68,0.00,,---,0.00,VWS V14.01,2013-10-10 19:18:00,
2013-10-10 14:23:00,77.4,66.9,29.95,WNW,286,0.0,1.0,70,0.00,,---,0.00,VWS V14.01,2013-10-10 19:23:00,
2013-10-10 14:28:00,77.2,66.2,29.95,WNW,285,0.0,1.0,69,0.00,,---,0.00,VWS V14.01,2013-10-10 19:28:00,
2013-10-10 14:33:00,76.9,66.0,29.95,WNW,286,0.0,0.0,69,0.00,,---,0.00,VWS V14.01,2013-10-10 19:33:00,
2013-10-10 14:38:00,76.8,65.4,29.95,ENE,77,1.0,2.0,68,0.00,,---,0.00,VWS V14.01,2013-10-10 19:38:00,
2013-10-10 14:43:00,77.0,65.2,29.95,ENE,78,0.0,2.0,67,0.00,,---,0.00,VWS V14.01,2013-10-10 19:43:00,
2013-10-10 14:48:00,77.6,65.3,29.94,ENE,67,0.0,2.0,66,0.00,,---,0.00,VWS V14.01,2013-10-10 19:48:00,
2013-10-10 14:53:00,78.0,66.2,29.94,ESE,115,0.0,2.0,67,0.00,,---,0.00,VWS V14.01,2013-10-10 19:53:00,
2013-10-10 14:58:00,78.7,66.0,29.94,SE,135,0.0,2.0,65,0.00,,---,0.00,VWS V14.01,2013-10-10 19:58:00,
2013-10-10 15:04:00,78.9,64.8,29.93,SE,136,0.0,0.0,62,0.00,,---,0.00,VWS V14.01,2013-10-10 20:04:00,
2013-10-10 15:09:00,79.3,63.3,29.93,SE,136,0.0,0.0,58,0.00,,---,0.00,VWS V14.01,2013-10-10 20:09:00,
2013-10-10 15:14:00,79.5,64.4,29.93,SE,135,0.0,1.0,60,0.00,,---,0.00,VWS V14.01,2013-10-10 20:14:00,
2013-10-10 15:19:00,79.6,64.5,29.93,SE,136,0.0,1.0,60,0.00,,---,0.00,VWS V14.01,2013-10-10 20:19:00,
2013-10-10 15:24:00,79.8,63.7,29.93,SE,136,0.0,1.0,58,0.00,,---,0.00,VWS V14.01,2013-10-10 20:24:00,
2013-10-10 15:29:00,79.9,64.3,29.93,West,259,1.0,1.0,59,0.00,,---,0.00,VWS V14.01,2013-10-10 20:29:00,
2013-10-10 15:31:00,79.9,64.3,29.93,WNW,284,0.0,2.0,59,0.00,,---,0.00,VWS V14.01,2013-10-10 20:31:00,
2013-10-10 15:36:00,79.8,65.2,29.93,South,173,0.0,1.0,61,0.00,,---,0.00,VWS V14.01,2013-10-10 20:36:00,
2013-10-10 15:41:00,79.8,64.7,29.93,South,172,0.0,1.0,60,0.00,,---,0.00,VWS V14.01,2013-10-10 20:41:00,
2013-10-10 15:46:00,80.2,65.5,29.92,South,173,0.0,1.0,61,0.00,,---,0.00,VWS V14.01,2013-10-10 20:46:00,
2013-10-10 15:51:00,80.2,66.0,29.92,South,171,0.0,1.0,62,0.00,,---,0.00,VWS V14.01,2013-10-10 20:51:00,
2013-10-10 15:56:00,79.8,64.7,29.92,South,173,0.0,2.0,60,0.00,,---,0.00,VWS V14.01,2013-10-10 20:56:00,
2013-10-10 16:01:00,79.6,65.9,29.92,South,174,0.0,2.0,63,0.00,,---,0.00,VWS V14.01,2013-10-10 21:01:00,
2013-10-10 16:06:00,79.1,65.9,29.92,South,173,0.0,0.0,64,0.00,,---,0.00,VWS V14.01,2013-10-10 21:06:00,
2013-10-10 16:11:00,78.5,64.4,29.92,South,173,0.0,1.0,62,0.00,,---,0.00,VWS V14.01,2013-10-10 21:11:00,
2013-10-10 16:16:00,77.7,65.0,29.92,South,173,0.0,2.0,65,0.00,,---,0.00,VWS V14.01,2013-10-10 21:16:00,
2013-10-10 16:21:00,77.5,64.8,29.92,South,173,0.0,2.0,65,0.00,,---,0.00,VWS V14.01,2013-10-10 21:21:00,
2013-10-10 16:26:00,77.4,65.2,29.92,South,173,0.0,2.0,66,0.00,,---,0.00,VWS V14.01,2013-10-10 21:26:00,
2013-10-10 16:31:00,77.3,65.1,29.92,South,173,0.0,2.0,66,0.00,,---,0.00,VWS V14.01,2013-10-10 21:31:00,
2013-10-10 16:36:00,77.1,64.9,29.92,South,173,0.0,0.0,66,0.00,,---,0.00,VWS V14.01,2013-10-10 21:36:00,
2013-10-10 16:41:00,77.2,65.4,29.92,South,173,0.0,0.0,67,0.00,,---,0.00,VWS V14.01,2013-10-10 21:41:00,
2013-10-10 16:46:00,77.3,65.1,29.91,South,173,0.0,0.0,66,0.00,,---,0.00,VWS V14.01,2013-10-10 21:46:00,
2013-10-10 16:51:00,77.2,65.8,29.91,South,173,0.0,0.0,68,0.00,,---,0.00,VWS V14.01,2013-10-10 21:51:00,
2013-10-10 16:56:00,77.1,66.2,29.91,South,173,0.0,0.0,69,0.00,,---,0.00,VWS V14.01,2013-10-10 21:56:00,
2013-10-10 17:01:00,77.1,67.4,29.91,South,174,0.0,0.0,72,0.00,,---,0.00,VWS V14.01,2013-10-10 22:01:00,
2013-10-10 17:06:00,76.8,67.5,29.91,South,172,0.0,0.0,73,0.00,,---,0.00,VWS V14.01,2013-10-10 22:06:00,
2013-10-10 17:11:00,76.5,67.6,29.91,South,173,0.0,0.0,74,0.00,,---,0.00,VWS V14.01,2013-10-10 22:11:00,
2013-10-10 17:16:00,75.9,67.0,29.92,South,173,0.0,0.0,74,0.00,,---,0.00,VWS V14.01,2013-10-10 22:16:00,
2013-10-10 17:22:00,75.4,66.5,29.92,South,173,0.0,0.0,74,0.00,,---,0.00,VWS V14.01,2013-10-10 22:22:00,
2013-10-10 17:27:00,75.3,66.8,29.92,South,173,0.0,0.0,75,0.00,,---,0.00,VWS V14.01,2013-10-10 22:27:00,
2013-10-10 17:32:00,75.4,66.9,29.91,South,172,0.0,0.0,75,0.00,,---,0.00,VWS V14.01,2013-10-10 22:32:00,
2013-10-10 17:37:00,75.6,67.1,29.91,South,173,0.0,0.0,75,0.00,,---,0.00,VWS V14.01,2013-10-10 22:37:00,
2013-10-10 17:42:00,75.6,66.3,29.91,South,173,0.0,0.0,73,0.00,,---,0.00,VWS V14.01,2013-10-10 22:42:00,
2013-10-10 17:47:00,75.5,66.2,29.91,South,173,0.0,0.0,73,0.00,,---,0.00,VWS V14.01,2013-10-10 22:47:00,
2013-10-10 17:52:00,74.8,66.7,29.91,SSE,153,0.0,1.0,76,0.00,,---,0.00,VWS V14.01,2013-10-10 22:52:00,
2013-10-10 17:57:00,74.1,66.4,29.91,SSE,152,0.0,1.0,77,0.00,,---,0.00,VWS V14.01,2013-10-10 22:57:00,
2013-10-10 18:02:00,73.7,66.8,29.91,SSE,152,0.0,1.0,79,0.00,,---,0.00,VWS V14.01,2013-10-10 23:02:00,
2013-10-10 18:07:00,73.5,67.0,29.91,SSE,152,0.0,0.0,80,0.00,,---,0.00,VWS V14.01,2013-10-10 23:07:00,
2013-10-10 18:12:00,73.3,66.8,29.91,SSE,152,0.0,0.0,80,0.00,,---,0.00,VWS V14.01,2013-10-10 23:12:00,
2013-10-10 18:17:00,73.0,66.8,29.90,SSE,152,0.0,0.0,81,0.00,,---,0.00,VWS V14.01,2013-10-10 23:17:00,
2013-10-10 18:22:00,72.4,66.2,29.90,SSE,152,0.0,0.0,81,0.00,,---,0.00,VWS V14.01,2013-10-10 23:22:00,
2013-10-10 18:27:00,71.9,66.1,29.90,SSE,152,0.0,0.0,82,0.00,,---,0.00,VWS V14.01,2013-10-10 23:27:00,
2013-10-10 18:32:00,71.3,65.9,29.90,SSE,152,0.0,0.0,83,0.00,,---,0.00,VWS V14.01,2013-10-10 23:32:00,
2013-10-10 18:37:00,70.8,65.7,29.90,SSE,152,0.0,0.0,84,0.00,,---,0.00,VWS V14.01,2013-10-10 23:37:00,
2013-10-10 18:42:00,70.2,65.5,29.90,SSE,152,0.0,0.0,85,0.00,,---,0.00,VWS V14.01,2013-10-10 23:42:00,
2013-10-10 18:47:00,69.6,65.2,29.90,SSE,152,0.0,0.0,86,0.00,,---,0.00,VWS V14.01,2013-10-10 23:47:00,
2013-10-10 18:52:00,69.0,65.0,29.90,SSE,152,0.0,0.0,87,0.00,,---,0.00,VWS V14.01,2013-10-10 23:52:00,
2013-10-10 18:57:00,68.6,64.9,29.90,SSE,152,0.0,0.0,88,0.00,,---,0.00,VWS V14.01,2013-10-10 23:57:00,
2013-10-10 19:02:00,68.2,64.8,29.90,SSE,152,0.0,0.0,89,0.00,,---,0.00,VWS V14.01,2013-10-11 00:02:00,
2013-10-10 19:07:00,67.9,64.5,29.90,SSE,152,0.0,0.0,89,0.00,,---,0.00,VWS V14.01,2013-10-11 00:07:00,
2013-10-10 19:12:00,67.6,64.6,29.90,SSE,152,0.0,0.0,90,0.00,,---,0.00,VWS V14.01,2013-10-11 00:12:00,
2013-10-10 19:17:00,67.4,64.4,29.90,SSE,152,0.0,0.0,90,0.00,,---,0.00,VWS V14.01,2013-10-11 00:17:00,
2013-10-10 19:22:00,67.1,64.4,29.90,SSE,152,0.0,0.0,91,0.00,,---,0.00,VWS V14.01,2013-10-11 00:22:00,
2013-10-10 19:27:00,66.9,64.5,29.90,SSE,153,0.0,0.0,92,0.00,,---,0.00,VWS V14.01,2013-10-11 00:27:00,
2013-10-10 19:32:00,66.7,64.0,29.90,SSE,152,0.0,0.0,91,0.00,,---,0.00,VWS V14.01,2013-10-11 00:32:00,
2013-10-10 19:37:00,66.4,63.7,29.90,SSE,152,0.0,0.0,91,0.00,,---,0.00,VWS V14.01,2013-10-11 00:37:00,
2013-10-10 19:42:00,66.2,63.8,29.90,SSE,152,0.0,0.0,92,0.00,,---,0.00,VWS V14.01,2013-10-11 00:42:00,
2013-10-10 19:47:00,66.0,63.6,29.90,SSE,152,0.0,0.0,92,0.00,,---,0.00,VWS V14.01,2013-10-11 00:47:00,
2013-10-10 19:52:00,65.8,63.4,29.90,SSE,152,0.0,0.0,92,0.00,,---,0.00,VWS V14.01,2013-10-11 00:52:00,
2013-10-10 19:57:00,65.5,63.1,29.90,SSE,153,0.0,0.0,92,0.00,,---,0.00,VWS V14.01,2013-10-11 00:57:00,
2013-10-10 20:02:00,65.3,62.9,29.91,SSE,152,0.0,0.0,92,0.00,,---,0.00,VWS V14.01,2013-10-11 01:02:00,
2013-10-10 20:07:00,65.2,63.1,29.91,SSE,152,0.0,0.0,93,0.00,,---,0.00,VWS V14.01,2013-10-11 01:07:00,
2013-10-10 20:12:00,64.9,62.8,29.91,SSE,152,0.0,0.0,93,0.00,,---,0.00,VWS V14.01,2013-10-11 01:12:00,
2013-10-10 20:17:00,64.8,62.7,29.91,SSE,152,0.0,0.0,93,0.00,,---,0.00,VWS V14.01,2013-10-11 01:17:00,
2013-10-10 20:22:00,64.7,62.6,29.91,SSE,152,0.0,0.0,93,0.00,,---,0.00,VWS V14.01,2013-10-11 01:22:00,
2013-10-10 20:27:00,64.5,62.4,29.91,SSE,152,0.0,0.0,93,0.00,,---,0.00,VWS V14.01,2013-10-11 01:27:00,
2013-10-10 20:32:00,64.3,62.2,29.91,SSE,152,0.0,0.0,93,0.00,,---,0.00,VWS V14.01,2013-10-11 01:32:00,
2013-10-10 20:37:00,64.2,62.1,29.91,SSE,152,0.0,0.0,93,0.00,,---,0.00,VWS V14.01,2013-10-11 01:37:00,
2013-10-10 20:41:00,64.0,61.9,29.91,SSE,152,0.0,0.0,93,0.00,,---,0.00,VWS V14.01,2013-10-11 01:41:00,
2013-10-10 20:47:00,63.8,61.7,29.91,SSE,152,0.0,0.0,93,0.00,,---,0.00,VWS V14.01,2013-10-11 01:47:00,
2013-10-10 20:52:00,63.6,61.5,29.91,SSE,152,0.0,0.0,93,0.00,,---,0.00,VWS V14.01,2013-10-11 01:52:00,
2013-10-10 20:56:00,63.4,61.7,29.91,SSE,152,0.0,0.0,94,0.00,,---,0.00,VWS V14.01,2013-10-11 01:56:00,
2013-10-10 21:02:00,63.2,61.5,29.91,SSE,152,0.0,0.0,94,0.00,,---,0.00,VWS V14.01,2013-10-11 02:02:00,
2013-10-10 21:07:00,63.2,61.5,29.91,SSE,152,0.0,0.0,94,0.00,,---,0.00,VWS V14.01,2013-10-11 02:07:00,
2013-10-10 21:12:00,63.2,61.5,29.91,SSE,153,0.0,0.0,94,0.00,,---,0.00,VWS V14.01,2013-10-11 02:12:00,
2013-10-10 21:17:00,63.1,61.3,29.91,SSE,152,0.0,0.0,94,0.00,,---,0.00,VWS V14.01,2013-10-11 02:17:00,
2013-10-10 21:22:00,63.0,61.2,29.91,SSE,152,0.0,0.0,94,0.00,,---,0.00,VWS V14.01,2013-10-11 02:22:00,
2013-10-10 21:27:00,62.8,61.0,29.91,SSE,152,0.0,0.0,94,0.00,,---,0.00,VWS V14.01,2013-10-11 02:27:00,
2013-10-10 21:32:00,62.6,60.8,29.91,SSE,152,0.0,0.0,94,0.00,,---,0.00,VWS V14.01,2013-10-11 02:32:00,
2013-10-10 21:37:00,62.4,60.7,29.91,SSE,152,0.0,0.0,94,0.00,,---,0.00,VWS V14.01,2013-10-11 02:37:00,
2013-10-10 21:42:00,62.3,60.6,29.91,SSE,152,0.0,0.0,94,0.00,,---,0.00,VWS V14.01,2013-10-11 02:42:00,
2013-10-10 21:47:00,62.2,60.5,29.91,SSE,152,0.0,0.0,94,0.00,,---,0.00,VWS V14.01,2013-10-11 02:47:00,
2013-10-10 21:52:00,62.0,60.3,29.91,SSE,152,0.0,0.0,94,0.00,,---,0.00,VWS V14.01,2013-10-11 02:52:00,
2013-10-10 21:57:00,61.9,60.2,29.91,SSE,152,0.0,0.0,94,0.00,,---,0.00,VWS V14.01,2013-10-11 02:57:00,
2013-10-10 22:02:00,61.8,60.1,29.91,SSE,152,0.0,0.0,94,0.00,,---,0.00,VWS V14.01,2013-10-11 03:02:00,
2013-10-10 22:07:00,61.7,60.0,29.91,SSE,152,0.0,0.0,94,0.00,,---,0.00,VWS V14.01,2013-10-11 03:07:00,
2013-10-10 22:12:00,61.6,59.9,29.91,SSE,152,0.0,0.0,94,0.00,,---,0.00,VWS V14.01,2013-10-11 03:12:00,
2013-10-10 22:17:00,61.4,60.0,29.90,SSE,152,0.0,0.0,95,0.00,,---,0.00,VWS V14.01,2013-10-11 03:17:00,
2013-10-10 22:22:00,61.3,59.6,29.90,SSE,152,0.0,0.0,94,0.00,,---,0.00,VWS V14.01,2013-10-11 03:22:00,
2013-10-10 22:27:00,61.3,59.9,29.90,SSE,152,0.0,0.0,95,0.00,,---,0.00,VWS V14.01,2013-10-11 03:27:00,
2013-10-10 22:32:00,61.2,59.8,29.90,SSE,152,0.0,0.0,95,0.00,,---,0.00,VWS V14.01,2013-10-11 03:32:00,
2013-10-10 22:37:00,61.0,59.6,29.90,SSE,152,0.0,0.0,95,0.00,,---,0.00,VWS V14.01,2013-10-11 03:37:00,
2013-10-10 22:42:00,60.9,59.5,29.90,SSE,152,0.0,0.0,95,0.00,,---,0.00,VWS V14.01,2013-10-11 03:42:00,
2013-10-10 22:47:00,60.8,59.4,29.90,SSE,152,0.0,0.0,95,0.00,,---,0.00,VWS V14.01,2013-10-11 03:47:00,
2013-10-10 22:52:00,60.7,59.3,29.90,SSE,152,0.0,0.0,95,0.00,,---,0.00,VWS V14.01,2013-10-11 03:52:00,
2013-10-10 22:57:00,60.6,59.2,29.90,SSE,152,0.0,0.0,95,0.00,,---,0.00,VWS V14.01,2013-10-11 03:57:00,
2013-10-10 23:01:00,60.6,59.2,29.90,SSE,152,0.0,0.0,95,0.00,,---,0.00,VWS V14.01,2013-10-11 04:01:00,
2013-10-10 23:02:00,60.5,59.1,29.90,SSE,152,0.0,0.0,95,0.00,,---,0.00,VWS V14.01,2013-10-11 04:02:00,
2013-10-10 23:07:00,60.4,59.0,29.90,SSE,152,0.0,0.0,95,0.00,,---,0.00,VWS V14.01,2013-10-11 04:07:00,
2013-10-10 23:12:00,60.5,59.1,29.90,SSE,152,0.0,0.0,95,0.00,,---,0.00,VWS V14.01,2013-10-11 04:12:00,
2013-10-10 23:17:00,60.3,58.9,29.90,SSE,152,0.0,1.0,95,0.00,,---,0.00,VWS V14.01,2013-10-11 04:17:00,
2013-10-10 23:22:00,60.3,58.9,29.90,SSE,152,0.0,1.0,95,0.00,,---,0.00,VWS V14.01,2013-10-11 04:22:00,
2013-10-10 23:27:00,60.2,58.8,29.90,SSE,152,0.0,1.0,95,0.00,,---,0.00,VWS V14.01,2013-10-11 04:27:00,
2013-10-10 23:32:00,60.0,58.6,29.89,SSE,153,0.0,1.0,95,0.00,,---,0.00,VWS V14.01,2013-10-11 04:32:00,
2013-10-10 23:37:00,59.9,58.5,29.89,SSE,152,0.0,0.0,95,0.00,,---,0.00,VWS V14.01,2013-10-11 04:37:00,
2013-10-10 23:42:00,59.8,58.4,29.89,SSE,152,0.0,0.0,95,0.00,,---,0.00,VWS V14.01,2013-10-11 04:42:00,
2013-10-10 23:47:00,59.8,58.4,29.89,SSE,152,0.0,0.0,95,0.00,,---,0.00,VWS V14.01,2013-10-11 04:47:00,
2013-10-10 23:52:00,59.7,58.3,29.89,SSE,152,0.0,0.0,95,0.00,,---,0.00,VWS V14.01,2013-10-11 04:52:00,
2013-10-10 23:57:00,59.5,58.1,29.89,SSE,152,0.0,0.0,95,0.00,,---,0.00,VWS V14.01,2013-10-11 04:57:00,